This is the latest recevied weather packets stored in our database for station/object KF0JHJ. If no packets are shown the sender has not sent any weather packets the latest 10 day(s).
| Time | Temp. | Humidity | Pressure | Rain* | Wind** | Luminosity | Snow |
|---|---|---|---|---|---|---|---|
| 1778137270 | 0° C | 77% | 1011.7 hPa | - | - | 0 W/m² | - |
| 1778136966 | 0° C | 77% | 1011.5 hPa | - | - | 0 W/m² | - |
| 1778136663 | 0.56° C | 77% | 1011.7 hPa | - | - | 0 W/m² | - |
| 1778136361 | 0.56° C | 77% | 1011.6 hPa | - | - | 0 W/m² | - |
| 1778136059 | 0.56° C | 78% | 1011.8 hPa | - | - | 0 W/m² | - |
| 1778135756 | 0.56° C | 79% | 1011.8 hPa | - | - | 0 W/m² | - |
| 1778135448 | 0.56° C | 81% | 1012 hPa | - | - | 0 W/m² | - |
| 1778135144 | 0.56° C | 80% | 1012 hPa | - | - | 0 W/m² | - |
| 1778134842 | 0° C | 77% | 1012 hPa | - | - | 0 W/m² | - |
| 1778134540 | 0.56° C | 76% | 1012 hPa | - | - | 0 W/m² | - |
| 1778134237 | 0.56° C | 75% | 1011.9 hPa | - | - | 0 W/m² | - |
| 1778133935 | 0.56° C | 74% | 1012.1 hPa | - | - | 0 W/m² | - |
| 1778133632 | 1.11° C | 73% | 1012.1 hPa | - | - | 0 W/m² | - |
| 1778133331 | 1.11° C | 73% | 1012.2 hPa | - | - | 0 W/m² | - |
| 1778133028 | 1.11° C | 74% | 1012 hPa | - | - | 0 W/m² | - |
| 1778132724 | 1.11° C | 75% | 1012.2 hPa | - | - | 0 W/m² | - |
| 1778132421 | 0.56° C | 76% | 1012.1 hPa | - | - | 0 W/m² | - |
| 1778132119 | 0.56° C | 75% | 1012.1 hPa | - | - | 0 W/m² | - |
| 1778131818 | 0.56° C | 74% | 1012.2 hPa | - | - | 0 W/m² | - |
| 1778131515 | 0.56° C | 74% | 1012.2 hPa | - | - | 0 W/m² | - |
| 1778131211 | 1.11° C | 74% | 1012.2 hPa | - | - | 0 W/m² | - |
| 1778130909 | 1.11° C | 75% | 1012.5 hPa | - | - | 0 W/m² | - |
| 1778130606 | 1.67° C | 76% | 1012.3 hPa | - | - | 0 W/m² | - |
| 1778130302 | 1.67° C | 74% | 1012.2 hPa | - | - | 0 W/m² | - |
| 1778129999 | 2.22° C | 73% | 1012.3 hPa | - | - | 0 W/m² | - |
* Rain since midnight (hover to see other rain measurements)
** Current wind speed in m/s (hover to see current wind gust speed)